Retour au catalogue

COSMOS 839 DEB

ActifLEO
NORAD 20283·DEBRIS·🇷🇺 Russia

Lancé Jul 8, 1976 depuis Plesetsk Cosmodrome

Loading…

Prochains Passages (prochaines 24 heures)

TLE

FraisSource: Space-Track

Époque: Sep 13, 2026, 22:12 UTC

1 20283U 76067BW  26256.92501660  .00000584  00000-0  21016-2 0  9990
2 20283  65.7053 192.0604 0629884 147.1682 286.2058 12.48328932695565

Suivez COSMOS 839 DEB en temps réel avec AllMySat

Download on the App Store